Time,TemperatureF,DewpointF,PressureIn,WindDirection,WindDirectionDegrees,WindSpeedMPH,WindSpeedGustMPH,Humidity,HourlyPrecipIn,Conditions,Clouds,dailyrainin,SoftwareType,DateUTC
2013-02-20 00:00:00,-12.5,-99.9,30.41,North,-999,0.0,0.0,-999,0.00,,,-99.99,FreeWX 2.04,2013-02-20 06:00:00,
2013-02-20 00:05:00,-12.3,-99.9,30.41,North,-999,0.0,3.1,-999,0.00,,,-99.99,FreeWX 2.04,2013-02-20 06:05:00,
2013-02-20 00:10:00,-12.1,-99.9,30.41,North,-999,0.0,0.0,-999,0.00,,,-99.99,FreeWX 2.04,2013-02-20 06:10:00,
2013-02-20 00:15:00,-12.3,-99.9,30.41,North,-999,0.0,0.0,-999,0.00,,,-99.99,FreeWX 2.04,2013-02-20 06:15:00,
2013-02-20 00:20:00,-12.5,-99.9,30.41,North,-999,0.0,3.6,-999,0.00,,,-99.99,FreeWX 2.04,2013-02-20 06:20:00,
2013-02-20 00:25:00,-12.5,-99.9,30.41,North,-999,0.0,0.0,-999,0.00,,,-99.99,FreeWX 2.04,2013-02-20 06:25:00,
2013-02-20 00:30:00,-12.6,-99.9,30.41,North,-999,0.0,0.0,-999,0.00,,,-99.99,FreeWX 2.04,2013-02-20 06:30:00,
2013-02-20 00:35:00,-12.8,-99.9,30.41,North,-999,0.0,0.0,-999,0.00,,,-99.99,FreeWX 2.04,2013-02-20 06:35:00,
2013-02-20 00:40:00,-12.8,-99.9,30.41,North,-999,0.0,0.0,-999,0.00,,,-99.99,FreeWX 2.04,2013-02-20 06:40:00,
2013-02-20 00:45:00,-12.8,-99.9,30.41,North,-999,0.0,0.0,-999,0.00,,,-99.99,FreeWX 2.04,2013-02-20 06:45:00,
2013-02-20 00:50:00,-13.0,-99.9,30.44,North,-999,0.0,0.0,-999,0.00,,,-99.99,FreeWX 2.04,2013-02-20 06:50:00,
2013-02-20 00:55:00,-13.5,-99.9,30.44,North,-999,0.0,0.0,-999,0.00,,,-99.99,FreeWX 2.04,2013-02-20 06:55:00,
2013-02-20 01:00:00,-13.7,-99.9,30.44,North,-999,0.0,0.0,-999,0.00,,,-99.99,FreeWX 2.04,2013-02-20 07:00:00,
2013-02-20 01:05:00,-13.9,-99.9,30.41,North,-999,0.0,0.0,-999,0.00,,,-99.99,FreeWX 2.04,2013-02-20 07:05:00,
2013-02-20 01:10:00,-13.7,-99.9,30.41,North,-999,0.0,0.0,-999,0.00,,,-99.99,FreeWX 2.04,2013-02-20 07:10:00,
2013-02-20 01:15:00,-13.5,-99.9,30.41,North,-999,0.0,0.0,-999,0.00,,,-99.99,FreeWX 2.04,2013-02-20 07:15:00,
2013-02-20 01:20:00,-13.4,-99.9,30.44,North,-999,0.0,0.0,-999,0.00,,,-99.99,FreeWX 2.04,2013-02-20 07:20:00,
2013-02-20 01:25:00,-13.2,-99.9,30.44,North,-999,0.0,0.0,-999,0.00,,,-99.99,FreeWX 2.04,2013-02-20 07:25:00,
2013-02-20 01:30:00,-13.4,-99.9,30.44,North,-999,0.0,4.5,-999,0.00,,,-99.99,FreeWX 2.04,2013-02-20 07:30:00,
2013-02-20 01:35:00,-13.4,-99.9,30.44,North,-999,0.0,3.6,-999,0.00,,,-99.99,FreeWX 2.04,2013-02-20 07:35:00,
2013-02-20 01:40:00,-13.5,-99.9,30.44,North,-999,0.0,4.9,-999,0.00,,,-99.99,FreeWX 2.04,2013-02-20 07:40:00,
2013-02-20 01:45:00,-13.7,-99.9,30.44,West,274,1.0,5.4,-999,0.00,,,-99.99,FreeWX 2.04,2013-02-20 07:45:00,
2013-02-20 01:50:00,-13.7,-99.9,30.44,West,274,2.0,5.8,-999,0.00,,,-99.99,FreeWX 2.04,2013-02-20 07:50:00,
2013-02-20 01:55:00,-13.4,-99.9,30.44,West,274,1.0,4.0,-999,0.00,,,-99.99,FreeWX 2.04,2013-02-20 07:55:00,
2013-02-20 02:00:00,-13.5,-99.9,30.44,North,-999,0.0,3.6,-999,0.00,,,-99.99,FreeWX 2.04,2013-02-20 08:00:00,
2013-02-20 02:05:00,-14.3,-99.9,30.44,North,-999,0.0,6.7,-999,0.00,,,-99.99,FreeWX 2.04,2013-02-20 08:05:00,
2013-02-20 02:10:00,-14.8,-99.9,30.44,North,-999,0.0,5.4,-999,0.00,,,-99.99,FreeWX 2.04,2013-02-20 08:10:00,
2013-02-20 02:15:00,-15.3,-99.9,30.44,North,-999,0.0,0.0,-999,0.00,,,-99.99,FreeWX 2.04,2013-02-20 08:15:00,
2013-02-20 02:20:00,-15.7,-99.9,30.44,North,-999,0.0,4.0,-999,0.00,,,-99.99,FreeWX 2.04,2013-02-20 08:20:00,
2013-02-20 02:25:00,-16.1,-99.9,30.44,North,-999,0.0,3.1,-999,0.00,,,-99.99,FreeWX 2.04,2013-02-20 08:25:00,
2013-02-20 02:30:00,-16.1,-99.9,30.44,North,-999,0.0,0.0,-999,0.00,,,-99.99,FreeWX 2.04,2013-02-20 08:30:00,
2013-02-20 02:35:00,-16.6,-99.9,30.44,North,-999,0.0,0.0,-999,0.00,,,-99.99,FreeWX 2.04,2013-02-20 08:35:00,
2013-02-20 02:40:00,-17.0,-99.9,30.44,North,-999,0.0,0.0,-999,0.00,,,-99.99,FreeWX 2.04,2013-02-20 08:40:00,
2013-02-20 02:45:00,-17.1,-99.9,30.44,North,-999,0.0,0.0,-999,0.00,,,-99.99,FreeWX 2.04,2013-02-20 08:45:00,
2013-02-20 02:50:00,-17.0,-99.9,30.44,North,-999,0.0,3.1,-999,0.00,,,-99.99,FreeWX 2.04,2013-02-20 08:50:00,
2013-02-20 02:55:00,-16.6,-99.9,30.44,North,-999,0.0,3.6,-999,0.00,,,-99.99,FreeWX 2.04,2013-02-20 08:55:00,
2013-02-20 03:00:00,-16.1,-99.9,30.44,North,-999,0.0,3.6,-999,0.00,,,-99.99,FreeWX 2.04,2013-02-20 09:00:00,
2013-02-20 03:05:00,-15.5,-99.9,30.44,North,-999,0.0,3.6,-999,0.00,,,-99.99,FreeWX 2.04,2013-02-20 09:05:00,
2013-02-20 03:10:00,-15.5,-99.9,30.44,North,-999,0.0,4.9,-999,0.00,,,-99.99,FreeWX 2.04,2013-02-20 09:10:00,
2013-02-20 03:15:00,-15.5,-99.9,30.44,North,-999,0.0,3.1,-999,0.00,,,-99.99,FreeWX 2.04,2013-02-20 09:15:00,
2013-02-20 03:20:00,-15.3,-99.9,30.44,North,-999,0.0,2.7,-999,0.00,,,-99.99,FreeWX 2.04,2013-02-20 09:20:00,
2013-02-20 03:25:00,-15.5,-99.9,30.44,North,-999,0.0,2.7,-999,0.00,,,-99.99,FreeWX 2.04,2013-02-20 09:25:00,
2013-02-20 03:30:00,-15.7,-99.9,30.44,North,-999,0.0,3.6,-999,0.00,,,-99.99,FreeWX 2.04,2013-02-20 09:30:00,
2013-02-20 03:35:00,-15.7,-99.9,30.44,North,-999,0.0,2.7,-999,0.00,,,-99.99,FreeWX 2.04,2013-02-20 09:35:00,
2013-02-20 03:40:00,-15.7,-99.9,30.44,North,-999,0.0,0.0,-999,0.00,,,-99.99,FreeWX 2.04,2013-02-20 09:40:00,
2013-02-20 03:45:00,-15.5,-99.9,30.44,North,-999,0.0,3.6,-999,0.00,,,-99.99,FreeWX 2.04,2013-02-20 09:45:00,
2013-02-20 03:50:00,-15.3,-99.9,30.44,North,-999,0.0,0.0,-999,0.00,,,-99.99,FreeWX 2.04,2013-02-20 09:50:00,
2013-02-20 03:55:00,-15.5,-99.9,30.44,North,-999,0.0,0.0,-999,0.00,,,-99.99,FreeWX 2.04,2013-02-20 09:55:00,
2013-02-20 04:00:00,-15.7,-99.9,30.44,North,-999,0.0,0.0,-999,0.00,,,-99.99,FreeWX 2.04,2013-02-20 10:00:00,
2013-02-20 04:05:00,-15.7,-99.9,30.44,North,-999,0.0,0.0,-999,0.00,,,-99.99,FreeWX 2.04,2013-02-20 10:05:00,
2013-02-20 04:10:00,-15.7,-99.9,30.44,North,-999,0.0,0.0,-999,0.00,,,-99.99,FreeWX 2.04,2013-02-20 10:10:00,
2013-02-20 04:15:00,-15.9,-99.9,30.44,North,-999,0.0,3.6,-999,0.00,,,-99.99,FreeWX 2.04,2013-02-20 10:15:00,
2013-02-20 04:20:00,-15.9,-99.9,30.44,North,-999,0.0,3.1,-999,0.00,,,-99.99,FreeWX 2.04,2013-02-20 10:20:00,
2013-02-20 04:25:00,-16.1,-99.9,30.44,West,275,1.0,6.7,-999,0.00,,,-99.99,FreeWX 2.04,2013-02-20 10:25:00,
2013-02-20 04:30:00,-16.2,-99.9,30.44,West,275,2.0,5.4,-999,0.00,,,-99.99,FreeWX 2.04,2013-02-20 10:30:00,
2013-02-20 04:35:00,-16.4,-99.9,30.44,West,275,3.0,5.4,-999,0.00,,,-99.99,FreeWX 2.04,2013-02-20 10:35:00,
2013-02-20 04:40:00,-16.1,-99.9,30.44,West,275,2.0,4.9,-999,0.00,,,-99.99,FreeWX 2.04,2013-02-20 10:40:00,
2013-02-20 04:45:00,-15.7,-99.9,30.44,West,276,1.0,5.4,-999,0.00,,,-99.99,FreeWX 2.04,2013-02-20 10:45:00,
2013-02-20 04:50:00,-15.2,-99.9,30.44,North,-999,0.0,4.0,-999,0.00,,,-99.99,FreeWX 2.04,2013-02-20 10:50:00,
2013-02-20 04:55:00,-14.6,-99.9,30.44,West,276,1.0,6.3,-999,0.00,,,-99.99,FreeWX 2.04,2013-02-20 10:55:00,
2013-02-20 05:00:00,-14.4,-99.9,30.44,West,276,2.0,5.4,-999,0.00,,,-99.99,FreeWX 2.04,2013-02-20 11:00:00,
2013-02-20 05:05:00,-13.9,-99.9,30.44,West,276,2.0,5.4,-999,0.00,,,-99.99,FreeWX 2.04,2013-02-20 11:05:00,
2013-02-20 05:10:00,-13.4,-99.9,30.44,West,276,2.0,4.9,-999,0.00,,,-99.99,FreeWX 2.04,2013-02-20 11:10:00,
2013-02-20 05:15:00,-13.2,-99.9,30.44,West,276,2.0,5.8,-999,0.00,,,-99.99,FreeWX 2.04,2013-02-20 11:15:00,
2013-02-20 05:20:00,-13.0,-99.9,30.44,West,276,2.0,5.8,-999,0.00,,,-99.99,FreeWX 2.04,2013-02-20 11:20:00,
2013-02-20 05:25:00,-12.8,-99.9,30.44,West,276,2.0,5.4,-999,0.00,,,-99.99,FreeWX 2.04,2013-02-20 11:25:00,
2013-02-20 05:30:00,-12.6,-99.9,30.44,West,276,1.0,4.0,-999,0.00,,,-99.99,FreeWX 2.04,2013-02-20 11:30:00,
2013-02-20 05:35:00,-12.5,-99.9,30.44,North,-999,0.0,4.5,-999,0.00,,,-99.99,FreeWX 2.04,2013-02-20 11:35:00,
2013-02-20 05:40:00,-12.5,-99.9,30.44,North,-999,0.0,4.5,-999,0.00,,,-99.99,FreeWX 2.04,2013-02-20 11:40:00,
2013-02-20 05:45:00,-12.5,-99.9,30.44,North,-999,0.0,3.6,-999,0.00,,,-99.99,FreeWX 2.04,2013-02-20 11:45:00,
2013-02-20 05:50:00,-12.6,-99.9,30.44,North,-999,0.0,0.0,-999,0.00,,,-99.99,FreeWX 2.04,2013-02-20 11:50:00,
2013-02-20 05:55:00,-12.6,-99.9,30.44,North,-999,0.0,0.0,-999,0.00,,,-99.99,FreeWX 2.04,2013-02-20 11:55:00,
2013-02-20 06:00:00,-12.8,-99.9,30.44,North,-999,0.0,0.0,-999,0.00,,,-99.99,FreeWX 2.04,2013-02-20 12:00:00,
2013-02-20 06:05:00,-12.8,-99.9,30.44,North,-999,0.0,0.0,-999,0.00,,,-99.99,FreeWX 2.04,2013-02-20 12:05:00,
2013-02-20 06:10:00,-13.2,-99.9,30.44,North,-999,0.0,0.0,-999,0.00,,,-99.99,FreeWX 2.04,2013-02-20 12:10:00,
2013-02-20 06:15:00,-13.9,-99.9,30.44,North,-999,0.0,0.0,-999,0.00,,,-99.99,FreeWX 2.04,2013-02-20 12:15:00,
2013-02-20 06:20:00,-14.8,-99.9,30.44,North,-999,0.0,0.0,-999,0.00,,,-99.99,FreeWX 2.04,2013-02-20 12:20:00,
2013-02-20 06:25:00,-15.3,-99.9,30.44,North,-999,0.0,0.0,-999,0.00,,,-99.99,FreeWX 2.04,2013-02-20 12:25:00,
2013-02-20 06:30:00,-15.7,-99.9,30.44,North,-999,0.0,0.0,-999,0.00,,,-99.99,FreeWX 2.04,2013-02-20 12:30:00,
2013-02-20 06:35:00,-15.9,-99.9,30.44,North,-999,0.0,0.0,-999,0.00,,,-99.99,FreeWX 2.04,2013-02-20 12:35:00,
2013-02-20 06:40:00,-16.1,-99.9,30.44,North,-999,0.0,0.0,-999,0.00,,,-99.99,FreeWX 2.04,2013-02-20 12:40:00,
2013-02-20 06:45:00,-15.9,-99.9,30.44,North,-999,0.0,0.0,-999,0.00,,,-99.99,FreeWX 2.04,2013-02-20 12:45:00,
2013-02-20 06:50:00,-15.9,-99.9,30.44,North,-999,0.0,0.0,-999,0.00,,,-99.99,FreeWX 2.04,2013-02-20 12:50:00,
2013-02-20 06:55:00,-16.2,-99.9,30.44,North,-999,0.0,0.0,-999,0.00,,,-99.99,FreeWX 2.04,2013-02-20 12:55:00,
2013-02-20 07:00:00,-16.6,-99.9,30.44,North,-999,0.0,0.0,-999,0.00,,,-99.99,FreeWX 2.04,2013-02-20 13:00:00,
2013-02-20 07:05:00,-16.6,-99.9,30.44,North,-999,0.0,0.0,-999,0.00,,,-99.99,FreeWX 2.04,2013-02-20 13:05:00,
2013-02-20 07:10:00,-16.6,-99.9,30.44,North,-999,0.0,0.0,-999,0.00,,,-99.99,FreeWX 2.04,2013-02-20 13:10:00,
2013-02-20 07:15:00,-16.4,-99.9,30.44,North,-999,0.0,0.0,-999,0.00,,,-99.99,FreeWX 2.04,2013-02-20 13:15:00,
2013-02-20 07:20:00,-16.4,-99.9,30.44,North,-999,0.0,0.0,-999,0.00,,,-99.99,FreeWX 2.04,2013-02-20 13:20:00,
2013-02-20 07:25:00,-16.2,-99.9,30.44,North,-999,0.0,0.0,-999,0.00,,,-99.99,FreeWX 2.04,2013-02-20 13:25:00,
2013-02-20 07:30:00,-16.2,-99.9,30.44,North,-999,0.0,0.0,-999,0.00,,,-99.99,FreeWX 2.04,2013-02-20 13:30:00,
2013-02-20 07:35:00,-16.1,-99.9,30.44,North,-999,0.0,0.0,-999,0.00,,,-99.99,FreeWX 2.04,2013-02-20 13:35:00,
2013-02-20 07:40:00,-16.1,-99.9,30.44,North,-999,0.0,0.0,-999,0.00,,,-99.99,FreeWX 2.04,2013-02-20 13:40:00,
2013-02-20 07:45:00,-15.9,-99.9,30.44,North,-999,0.0,0.0,-999,0.00,,,-99.99,FreeWX 2.04,2013-02-20 13:45:00,
2013-02-20 07:50:00,-15.9,-99.9,30.44,North,-999,0.0,0.0,-999,0.00,,,-99.99,FreeWX 2.04,2013-02-20 13:50:00,
2013-02-20 07:55:00,-15.5,-99.9,30.44,North,-999,0.0,0.0,-999,0.00,,,-99.99,FreeWX 2.04,2013-02-20 13:55:00,
2013-02-20 08:00:00,-15.3,-99.9,30.44,North,-999,0.0,0.0,-999,0.00,,,-99.99,FreeWX 2.04,2013-02-20 14:00:00,
2013-02-20 08:05:00,-15.2,-99.9,30.47,North,-999,0.0,0.0,-999,0.00,,,-99.99,FreeWX 2.04,2013-02-20 14:05:00,
2013-02-20 08:10:00,-15.0,-99.9,30.47,North,-999,0.0,2.7,-999,0.00,,,-99.99,FreeWX 2.04,2013-02-20 14:10:00,
2013-02-20 08:15:00,-14.8,-99.9,30.47,North,-999,0.0,2.7,-999,0.00,,,-99.99,FreeWX 2.04,2013-02-20 14:15:00,
2013-02-20 08:20:00,-14.8,-99.9,30.44,North,-999,0.0,4.5,-999,0.00,,,-99.99,FreeWX 2.04,2013-02-20 14:20:00,
2013-02-20 08:25:00,-14.8,-99.9,30.44,West,276,2.0,5.4,-999,0.00,,,-99.99,FreeWX 2.04,2013-02-20 14:25:00,
2013-02-20 08:30:00,-14.4,-99.9,30.44,West,276,1.0,3.6,-999,0.00,,,-99.99,FreeWX 2.04,2013-02-20 14:30:00,
2013-02-20 08:35:00,-13.5,-99.9,30.44,West,276,1.0,4.9,-999,0.00,,,-99.99,FreeWX 2.04,2013-02-20 14:35:00,
2013-02-20 08:40:00,-12.8,-99.9,30.44,West,276,1.0,4.5,-999,0.00,,,-99.99,FreeWX 2.04,2013-02-20 14:40:00,
2013-02-20 08:45:00,-12.6,-99.9,30.44,WNW,285,1.0,6.3,-999,0.00,,,-99.99,FreeWX 2.04,2013-02-20 14:45:00,
2013-02-20 08:50:00,-12.5,-99.9,30.47,North,-999,0.0,3.1,-999,0.00,,,-99.99,FreeWX 2.04,2013-02-20 14:50:00,
2013-02-20 08:55:00,-12.5,-99.9,30.47,NW,316,1.0,3.6,-999,0.00,,,-99.99,FreeWX 2.04,2013-02-20 14:55:00,
2013-02-20 09:00:00,-12.5,-99.9,30.47,NW,316,2.0,4.5,-999,0.00,,,-99.99,FreeWX 2.04,2013-02-20 15:00:00,
2013-02-20 09:05:00,-12.3,-99.9,30.47,NW,316,2.0,4.0,-999,0.00,,,-99.99,FreeWX 2.04,2013-02-20 15:05:00,
2013-02-20 09:10:00,-11.7,-99.9,30.47,NW,316,1.0,4.0,-999,0.00,,,-99.99,FreeWX 2.04,2013-02-20 15:10:00,
2013-02-20 09:15:00,-11.0,-99.9,30.47,NW,316,1.0,4.5,-999,0.00,,,-99.99,FreeWX 2.04,2013-02-20 15:15:00,
2013-02-20 09:20:00,-10.7,-99.9,30.47,NW,316,2.0,4.0,-999,0.00,,,-99.99,FreeWX 2.04,2013-02-20 15:20:00,
2013-02-20 09:25:00,-10.8,-99.9,30.47,NW,316,2.0,3.6,-999,0.00,,,-99.99,FreeWX 2.04,2013-02-20 15:25:00,
2013-02-20 09:30:00,-10.8,-99.9,30.47,NW,316,2.0,4.0,-999,0.00,,,-99.99,FreeWX 2.04,2013-02-20 15:30:00,
2013-02-20 09:35:00,-10.3,-99.9,30.47,NW,316,2.0,4.5,-999,0.00,,,-99.99,FreeWX 2.04,2013-02-20 15:35:00,
2013-02-20 09:40:00,-9.8,-99.9,30.47,NW,316,3.0,4.0,-999,0.00,,,-99.99,FreeWX 2.04,2013-02-20 15:40:00,
2013-02-20 09:45:00,-9.4,-99.9,30.47,NW,316,3.0,5.4,-999,0.00,,,-99.99,FreeWX 2.04,2013-02-20 15:45:00,
2013-02-20 09:50:00,-8.7,-99.9,30.47,NW,316,2.0,4.0,-999,0.00,,,-99.99,FreeWX 2.04,2013-02-20 15:50:00,
2013-02-20 09:55:00,-8.0,-99.9,30.47,NW,316,2.0,4.0,-999,0.00,,,-99.99,FreeWX 2.04,2013-02-20 15:55:00,
2013-02-20 10:00:00,-7.2,-99.9,30.47,NW,316,2.0,4.0,-999,0.00,,,-99.99,FreeWX 2.04,2013-02-20 16:00:00,
2013-02-20 10:05:00,-6.5,-99.9,30.47,NW,316,2.0,4.0,-999,0.00,,,-99.99,FreeWX 2.04,2013-02-20 16:05:00,
2013-02-20 10:10:00,-5.8,-99.9,30.47,NW,316,2.0,3.6,-999,0.00,,,-99.99,FreeWX 2.04,2013-02-20 16:10:00,
2013-02-20 10:15:00,-4.7,-99.9,30.47,NW,316,3.0,4.5,-999,0.00,,,-99.99,FreeWX 2.04,2013-02-20 16:15:00,
2013-02-20 10:20:00,-3.8,-99.9,30.47,NW,316,2.0,3.6,-999,0.00,,,-99.99,FreeWX 2.04,2013-02-20 16:20:00,
2013-02-20 10:25:00,-3.5,-99.9,30.47,NW,316,2.0,4.0,-999,0.00,,,-99.99,FreeWX 2.04,2013-02-20 16:25:00,
2013-02-20 10:30:00,-3.3,-99.9,30.47,NW,316,2.0,4.0,-999,0.00,,,-99.99,FreeWX 2.04,2013-02-20 16:30:00,
2013-02-20 10:35:00,-2.9,-99.9,30.44,NW,316,2.0,3.6,-999,0.00,,,-99.99,FreeWX 2.04,2013-02-20 16:35:00,
2013-02-20 10:40:00,-2.4,-99.9,30.44,NW,316,2.0,3.6,-999,0.00,,,-99.99,FreeWX 2.04,2013-02-20 16:40:00,
2013-02-20 10:45:00,-1.8,-99.9,30.44,NW,316,2.0,4.5,-999,0.00,,,-99.99,FreeWX 2.04,2013-02-20 16:45:00,
2013-02-20 10:50:00,-1.1,-99.9,30.44,NW,316,3.0,4.5,-999,0.00,,,-99.99,FreeWX 2.04,2013-02-20 16:50:00,
2013-02-20 10:55:00,-0.6,-99.9,30.44,NW,316,2.0,4.5,-999,0.00,,,-99.99,FreeWX 2.04,2013-02-20 16:55:00,
2013-02-20 11:00:00,0.1,-99.9,30.44,NW,316,2.0,4.5,-999,0.00,,,-99.99,FreeWX 2.04,2013-02-20 17:00:00,
2013-02-20 11:05:00,0.9,-99.9,30.44,NNW,328,1.0,4.9,-999,0.00,,,-99.99,FreeWX 2.04,2013-02-20 17:05:00,
2013-02-20 11:10:00,1.6,-99.9,30.44,North,350,2.0,4.9,-999,0.00,,,-99.99,FreeWX 2.04,2013-02-20 17:10:00,
2013-02-20 11:15:00,2.5,-99.9,30.44,North,358,3.0,6.9,-999,0.00,,,-99.99,FreeWX 2.04,2013-02-20 17:15:00,
2013-02-20 11:20:00,3.6,-99.9,30.44,North,355,3.0,5.8,-999,0.00,,,-99.99,FreeWX 2.04,2013-02-20 17:20:00,
2013-02-20 11:25:00,3.9,-99.9,30.44,North,5,2.0,6.7,-999,0.00,,,-99.99,FreeWX 2.04,2013-02-20 17:25:00,
2013-02-20 11:30:00,4.5,-99.9,30.44,NNE,16,3.0,5.4,-999,0.00,,,-99.99,FreeWX 2.04,2013-02-20 17:30:00,
2013-02-20 11:35:00,5.4,-99.9,30.44,NNE,12,2.0,5.4,-999,0.00,,,-99.99,FreeWX 2.04,2013-02-20 17:35:00,
2013-02-20 11:40:00,6.1,-99.9,30.44,North,11,2.0,5.8,-999,0.00,,,-99.99,FreeWX 2.04,2013-02-20 17:40:00,
2013-02-20 11:45:00,6.8,-99.9,30.44,NNE,14,3.0,5.4,-999,0.00,,,-99.99,FreeWX 2.04,2013-02-20 17:45:00,
2013-02-20 11:50:00,7.5,-99.9,30.44,NNE,20,3.0,6.3,-999,0.00,,,-99.99,FreeWX 2.04,2013-02-20 17:50:00,
2013-02-20 11:55:00,8.1,-99.9,30.44,North,5,2.0,4.9,-999,0.00,,,-99.99,FreeWX 2.04,2013-02-20 17:55:00,
2013-02-20 12:00:00,8.6,-99.9,30.44,North,1,2.0,5.8,-999,0.00,,,-99.99,FreeWX 2.04,2013-02-20 18:00:00,
2013-02-20 12:05:00,9.0,-99.9,30.44,NNE,18,3.0,5.8,-999,0.00,,,-99.99,FreeWX 2.04,2013-02-20 18:05:00,
2013-02-20 12:10:00,8.8,-99.9,30.44,NE,45,3.0,5.8,-999,0.00,,,-99.99,FreeWX 2.04,2013-02-20 18:10:00,
2013-02-20 12:15:00,8.6,-99.9,30.44,ENE,69,3.0,5.8,-999,0.00,,,-99.99,FreeWX 2.04,2013-02-20 18:15:00,
2013-02-20 12:20:00,8.8,-99.9,30.44,ENE,71,3.0,6.3,-999,0.00,,,-99.99,FreeWX 2.04,2013-02-20 18:20:00,
2013-02-20 12:25:00,8.8,-99.9,30.44,ENE,71,4.0,5.4,-999,0.00,,,-99.99,FreeWX 2.04,2013-02-20 18:25:00,
2013-02-20 12:30:00,9.1,-99.9,30.44,ENE,72,3.0,4.0,-999,0.00,,,-99.99,FreeWX 2.04,2013-02-20 18:30:00,
2013-02-20 12:35:00,9.5,-99.9,30.44,ENE,72,3.0,4.5,-999,0.00,,,-99.99,FreeWX 2.04,2013-02-20 18:35:00,
2013-02-20 12:40:00,9.9,-99.9,30.44,ENE,72,3.0,5.8,-999,0.00,,,-99.99,FreeWX 2.04,2013-02-20 18:40:00,
2013-02-20 12:45:00,10.0,-99.9,30.44,ENE,72,4.0,5.4,-999,0.00,,,-99.99,FreeWX 2.04,2013-02-20 18:45:00,
2013-02-20 12:50:00,10.2,-99.9,30.44,ENE,72,4.0,5.8,-999,0.00,,,-99.99,FreeWX 2.04,2013-02-20 18:50:00,
2013-02-20 12:55:00,10.6,-99.9,30.44,ENE,73,4.0,6.3,-999,0.00,,,-99.99,FreeWX 2.04,2013-02-20 18:55:00,
2013-02-20 13:01:00,10.8,-99.9,30.44,ENE,74,4.0,4.5,-999,0.00,,,-99.99,FreeWX 2.04,2013-02-20 19:01:00,
2013-02-20 13:06:00,11.1,-99.9,30.44,ENE,75,3.0,5.8,-999,0.00,,,-99.99,FreeWX 2.04,2013-02-20 19:06:00,
2013-02-20 13:11:00,11.5,-99.9,30.44,ENE,75,3.0,5.4,-999,0.00,,,-99.99,FreeWX 2.04,2013-02-20 19:11:00,
2013-02-20 13:16:00,11.7,-99.9,30.44,ENE,75,2.0,3.6,-999,0.00,,,-99.99,FreeWX 2.04,2013-02-20 19:16:00,
2013-02-20 13:21:00,11.8,-99.9,30.44,ENE,75,2.0,5.4,-999,0.00,,,-99.99,FreeWX 2.04,2013-02-20 19:21:00,
2013-02-20 13:26:00,12.2,-99.9,30.44,ENE,75,3.0,4.5,-999,0.00,,,-99.99,FreeWX 2.04,2013-02-20 19:26:00,
2013-02-20 13:31:00,12.6,-99.9,30.44,ENE,75,3.0,4.5,-999,0.00,,,-99.99,FreeWX 2.04,2013-02-20 19:31:00,
2013-02-20 13:36:00,12.9,-99.9,30.44,ENE,75,2.0,4.0,-999,0.00,,,-99.99,FreeWX 2.04,2013-02-20 19:36:00,
2013-02-20 13:41:00,13.1,-99.9,30.44,ENE,75,2.0,4.5,-999,0.00,,,-99.99,FreeWX 2.04,2013-02-20 19:41:00,
2013-02-20 13:46:00,13.3,-99.9,30.44,ENE,75,3.0,4.5,-999,0.00,,,-99.99,FreeWX 2.04,2013-02-20 19:46:00,
2013-02-20 13:51:00,13.3,-99.9,30.44,ENE,75,3.0,4.5,-999,0.00,,,-99.99,FreeWX 2.04,2013-02-20 19:51:00,
2013-02-20 13:56:00,13.5,-99.9,30.44,ENE,75,2.0,4.0,-999,0.00,,,-99.99,FreeWX 2.04,2013-02-20 19:56:00,
2013-02-20 14:01:00,13.6,-99.9,30.44,ENE,75,2.0,4.9,-999,0.00,,,-99.99,FreeWX 2.04,2013-02-20 20:01:00,
2013-02-20 14:06:00,13.6,-99.9,30.44,ENE,75,3.0,6.3,-999,0.00,,,-99.99,FreeWX 2.04,2013-02-20 20:06:00,
2013-02-20 14:11:00,13.6,-99.9,30.44,ENE,75,3.0,4.9,-999,0.00,,,-99.99,FreeWX 2.04,2013-02-20 20:11:00,
2013-02-20 14:16:00,13.6,-99.9,30.44,ENE,75,2.0,4.5,-999,0.00,,,-99.99,FreeWX 2.04,2013-02-20 20:16:00,
2013-02-20 14:21:00,13.6,-99.9,30.44,ENE,75,3.0,4.9,-999,0.00,,,-99.99,FreeWX 2.04,2013-02-20 20:21:00,
2013-02-20 14:26:00,13.5,-99.9,30.44,ENE,75,3.0,5.4,-999,0.00,,,-99.99,FreeWX 2.04,2013-02-20 20:26:00,
2013-02-20 14:31:00,13.3,-99.9,30.44,ENE,75,2.0,4.9,-999,0.00,,,-99.99,FreeWX 2.04,2013-02-20 20:31:00,
2013-02-20 14:36:00,13.1,-99.9,30.44,ENE,75,2.0,5.4,-999,0.00,,,-99.99,FreeWX 2.04,2013-02-20 20:36:00,
2013-02-20 14:41:00,13.1,-99.9,30.44,ENE,76,1.0,3.6,-999,0.00,,,-99.99,FreeWX 2.04,2013-02-20 20:41:00,
2013-02-20 14:46:00,13.3,-99.9,30.44,ENE,76,1.0,3.1,-999,0.00,,,-99.99,FreeWX 2.04,2013-02-20 20:46:00,
2013-02-20 14:51:00,13.5,-99.9,30.44,ENE,76,1.0,4.5,-999,0.00,,,-99.99,FreeWX 2.04,2013-02-20 20:51:00,
2013-02-20 14:56:00,13.6,-99.9,30.44,ENE,76,2.0,4.0,-999,0.00,,,-99.99,FreeWX 2.04,2013-02-20 20:56:00,
2013-02-20 15:01:00,13.6,-99.9,30.44,ENE,76,1.0,4.0,-999,0.00,,,-99.99,FreeWX 2.04,2013-02-20 21:01:00,
2013-02-20 15:06:00,13.6,-99.9,30.44,ENE,76,2.0,4.5,-999,0.00,,,-99.99,FreeWX 2.04,2013-02-20 21:06:00,
2013-02-20 15:11:00,13.8,-99.9,30.44,ENE,76,2.0,4.0,-999,0.00,,,-99.99,FreeWX 2.04,2013-02-20 21:11:00,
2013-02-20 15:16:00,13.6,-99.9,30.44,ENE,76,2.0,4.9,-999,0.00,,,-99.99,FreeWX 2.04,2013-02-20 21:16:00,
2013-02-20 15:21:00,13.6,-99.9,30.44,ENE,76,3.0,4.5,-999,0.00,,,-99.99,FreeWX 2.04,2013-02-20 21:21:00,
2013-02-20 15:26:00,13.6,-99.9,30.44,ENE,76,2.0,3.6,-999,0.00,,,-99.99,FreeWX 2.04,2013-02-20 21:26:00,
2013-02-20 15:31:00,13.6,-99.9,30.44,ENE,76,2.0,4.5,-999,0.00,,,-99.99,FreeWX 2.04,2013-02-20 21:31:00,
2013-02-20 15:36:00,13.6,-99.9,30.44,ENE,76,1.0,4.9,-999,0.00,,,-99.99,FreeWX 2.04,2013-02-20 21:36:00,
2013-02-20 15:41:00,13.8,-99.9,30.44,ENE,76,1.0,4.5,-999,0.00,,,-99.99,FreeWX 2.04,2013-02-20 21:41:00,
2013-02-20 15:46:00,14.0,-3.5,30.44,ENE,75,1.0,5.4,45,0.00,,,-99.99,FreeWX 2.04,2013-02-20 21:46:00,
2013-02-20 15:51:00,14.0,-3.5,30.44,ENE,58,1.0,5.8,45,0.00,,,-99.99,FreeWX 2.04,2013-02-20 21:51:00,
2013-02-20 15:56:00,14.0,-3.5,30.44,NE,37,1.0,5.8,45,0.00,,,-99.99,FreeWX 2.04,2013-02-20 21:56:00,
2013-02-20 16:01:00,14.2,-3.3,30.44,NNE,33,1.0,4.0,45,0.00,,,-99.99,FreeWX 2.04,2013-02-20 22:01:00,
2013-02-20 16:06:00,14.2,-3.3,30.44,North,-999,0.0,3.6,45,0.00,,,-99.99,FreeWX 2.04,2013-02-20 22:06:00,
2013-02-20 16:11:00,14.2,-3.3,30.44,NNE,13,1.0,7.4,45,0.00,,,-99.99,FreeWX 2.04,2013-02-20 22:11:00,
2013-02-20 16:16:00,14.2,-3.3,30.44,North,349,2.0,4.9,45,0.00,,,-99.99,FreeWX 2.04,2013-02-20 22:16:00,
2013-02-20 16:21:00,14.2,-3.3,30.44,NNW,346,1.0,4.0,45,0.00,,,-99.99,FreeWX 2.04,2013-02-20 22:21:00,
2013-02-20 16:26:00,14.2,-3.3,30.44,NNW,345,1.0,7.4,45,0.00,,,-99.99,FreeWX 2.04,2013-02-20 22:26:00,
2013-02-20 16:31:00,14.2,-3.6,30.44,NNW,343,3.0,6.3,44,0.00,,,-99.99,FreeWX 2.04,2013-02-20 22:31:00,
2013-02-20 16:36:00,14.2,-3.6,30.41,NNW,346,2.0,5.4,44,0.00,,,-99.99,FreeWX 2.04,2013-02-20 22:36:00,
2013-02-20 16:41:00,14.0,-3.8,30.41,North,350,2.0,5.8,44,0.00,,,-99.99,FreeWX 2.04,2013-02-20 22:41:00,
2013-02-20 16:46:00,14.0,-3.8,30.41,NNW,346,2.0,6.9,44,0.00,,,-99.99,FreeWX 2.04,2013-02-20 22:46:00,
2013-02-20 16:51:00,13.8,-99.9,30.41,NNW,339,2.0,8.3,-999,0.00,,,-99.99,FreeWX 2.04,2013-02-20 22:51:00,
2013-02-20 16:56:00,13.6,-99.9,30.41,NNW,338,3.0,6.3,-999,0.00,,,-99.99,FreeWX 2.04,2013-02-20 22:56:00,
2013-02-20 17:01:00,13.3,-99.9,30.41,NNW,339,3.0,5.8,-999,0.00,,,-99.99,FreeWX 2.04,2013-02-20 23:01:00,
2013-02-20 17:06:00,13.3,-99.9,30.41,NNW,341,2.0,6.3,-999,0.00,,,-99.99,FreeWX 2.04,2013-02-20 23:06:00,
2013-02-20 17:11:00,13.1,-99.9,30.41,NNW,342,2.0,7.8,-999,0.00,,,-99.99,FreeWX 2.04,2013-02-20 23:11:00,
2013-02-20 17:16:00,12.7,-99.9,30.41,NNW,344,3.0,7.4,-999,0.00,,,-99.99,FreeWX 2.04,2013-02-20 23:16:00,
2013-02-20 17:21:00,12.4,-99.9,30.41,NNW,344,3.0,7.4,-999,0.00,,,-99.99,FreeWX 2.04,2013-02-20 23:21:00,
2013-02-20 17:26:00,12.0,-99.9,30.41,NNW,342,3.0,7.4,-999,0.00,,,-99.99,FreeWX 2.04,2013-02-20 23:26:00,
2013-02-20 17:31:00,11.7,-99.9,30.41,NNW,337,3.0,5.8,-999,0.00,,,-99.99,FreeWX 2.04,2013-02-20 23:31:00,
2013-02-20 17:36:00,11.3,-99.9,30.41,NNW,334,3.0,5.4,-999,0.00,,,-99.99,FreeWX 2.04,2013-02-20 23:36:00,
2013-02-20 17:41:00,10.8,-99.9,30.41,NNW,336,3.0,5.4,-999,0.00,,,-99.99,FreeWX 2.04,2013-02-20 23:41:00,
2013-02-20 17:46:00,10.4,-99.9,30.41,NNW,339,3.0,5.4,-999,0.00,,,-99.99,FreeWX 2.04,2013-02-20 23:46:00,
2013-02-20 17:51:00,10.0,-99.9,30.41,NNW,339,2.0,5.8,-999,0.00,,,-99.99,FreeWX 2.04,2013-02-20 23:51:00,
2013-02-20 17:56:00,9.5,-99.9,30.41,NNW,339,2.0,5.8,-999,0.00,,,-99.99,FreeWX 2.04,2013-02-20 23:56:00,
2013-02-20 18:01:00,9.3,-99.9,30.41,NNW,339,2.0,4.0,-999,0.00,,,-99.99,FreeWX 2.04,2013-02-21 00:01:00,
2013-02-20 18:06:00,9.0,-99.9,30.41,NNW,339,1.0,3.6,-999,0.00,,,-99.99,FreeWX 2.04,2013-02-21 00:06:00,
2013-02-20 18:11:00,8.8,-99.9,30.41,North,-999,0.0,0.0,-999,0.00,,,-99.99,FreeWX 2.04,2013-02-21 00:11:00,
2013-02-20 18:16:00,8.6,-99.9,30.41,North,-999,0.0,2.7,-999,0.00,,,-99.99,FreeWX 2.04,2013-02-21 00:16:00,
2013-02-20 18:21:00,8.2,-99.9,30.41,North,-999,0.0,0.0,-999,0.00,,,-99.99,FreeWX 2.04,2013-02-21 00:21:00,
2013-02-20 18:26:00,8.2,-99.9,30.41,North,-999,0.0,0.0,-999,0.00,,,-99.99,FreeWX 2.04,2013-02-21 00:26:00,
2013-02-20 18:31:00,8.1,-99.9,30.41,North,-999,0.0,0.0,-999,0.00,,,-99.99,FreeWX 2.04,2013-02-21 00:31:00,
2013-02-20 18:36:00,7.9,-99.9,30.41,North,-999,0.0,0.0,-999,0.00,,,-99.99,FreeWX 2.04,2013-02-21 00:36:00,
2013-02-20 18:41:00,7.7,-99.9,30.41,North,-999,0.0,0.0,-999,0.00,,,-99.99,FreeWX 2.04,2013-02-21 00:41:00,
2013-02-20 18:46:00,7.5,-99.9,30.41,North,-999,0.0,0.0,-999,0.00,,,-99.99,FreeWX 2.04,2013-02-21 00:46:00,
2013-02-20 18:51:00,7.3,-99.9,30.41,North,-999,0.0,2.7,-999,0.00,,,-99.99,FreeWX 2.04,2013-02-21 00:51:00,
2013-02-20 18:56:00,7.0,-99.9,30.41,North,-999,0.0,2.7,-999,0.00,,,-99.99,FreeWX 2.04,2013-02-21 00:56:00,
2013-02-20 19:01:00,6.8,-99.9,30.41,North,-999,0.0,0.0,-999,0.00,,,-99.99,FreeWX 2.04,2013-02-21 01:01:00,
2013-02-20 19:06:00,6.6,-99.9,30.41,North,-999,0.0,2.7,-999,0.00,,,-99.99,FreeWX 2.04,2013-02-21 01:06:00,
2013-02-20 19:11:00,6.4,-99.9,30.41,North,-999,0.0,2.7,-999,0.00,,,-99.99,FreeWX 2.04,2013-02-21 01:11:00,
2013-02-20 19:16:00,6.3,-99.9,30.41,North,-999,0.0,4.0,-999,0.00,,,-99.99,FreeWX 2.04,2013-02-21 01:16:00,
2013-02-20 19:21:00,6.1,-99.9,30.41,NNW,339,2.0,4.5,-999,0.00,,,-99.99,FreeWX 2.04,2013-02-21 01:21:00,
2013-02-20 19:26:00,6.1,-99.9,30.41,NNW,339,2.0,4.0,-999,0.00,,,-99.99,FreeWX 2.04,2013-02-21 01:26:00,
2013-02-20 19:31:00,5.9,-99.9,30.41,NNW,339,2.0,4.9,-999,0.00,,,-99.99,FreeWX 2.04,2013-02-21 01:31:00,
2013-02-20 19:36:00,5.7,-99.9,30.41,NNW,339,2.0,4.9,-999,0.00,,,-99.99,FreeWX 2.04,2013-02-21 01:36:00,
2013-02-20 19:41:00,5.5,-99.9,30.41,NNW,339,1.0,4.5,-999,0.00,,,-99.99,FreeWX 2.04,2013-02-21 01:41:00,
2013-02-20 19:46:00,5.5,-99.9,30.41,North,-999,0.0,3.1,-999,0.00,,,-99.99,FreeWX 2.04,2013-02-21 01:46:00,
2013-02-20 19:51:00,5.5,-99.9,30.39,North,-999,0.0,4.5,-999,0.00,,,-99.99,FreeWX 2.04,2013-02-21 01:51:00,
2013-02-20 19:56:00,5.5,-99.9,30.39,North,-999,0.0,4.0,-999,0.00,,,-99.99,FreeWX 2.04,2013-02-21 01:56:00,
2013-02-20 20:01:00,5.4,-99.9,30.39,North,-999,0.0,2.7,-999,0.00,,,-99.99,FreeWX 2.04,2013-02-21 02:01:00,
2013-02-20 20:06:00,5.4,-99.9,30.39,North,-999,0.0,4.0,-999,0.00,,,-99.99,FreeWX 2.04,2013-02-21 02:06:00,
2013-02-20 20:11:00,5.2,-99.9,30.39,North,-999,0.0,3.6,-999,0.00,,,-99.99,FreeWX 2.04,2013-02-21 02:11:00,
2013-02-20 20:16:00,5.2,-99.9,30.39,North,-999,0.0,4.9,-999,0.00,,,-99.99,FreeWX 2.04,2013-02-21 02:16:00,
2013-02-20 20:21:00,5.0,-99.9,30.39,North,-999,0.0,4.0,-999,0.00,,,-99.99,FreeWX 2.04,2013-02-21 02:21:00,
2013-02-20 20:26:00,5.0,-99.9,30.39,NNW,339,1.0,4.0,-999,0.00,,,-99.99,FreeWX 2.04,2013-02-21 02:26:00,
2013-02-20 20:31:00,5.0,-99.9,30.39,NNW,339,1.0,5.8,-999,0.00,,,-99.99,FreeWX 2.04,2013-02-21 02:31:00,
2013-02-20 20:36:00,5.0,-99.9,30.39,North,-999,0.0,0.0,-999,0.00,,,-99.99,FreeWX 2.04,2013-02-21 02:36:00,
2013-02-20 20:41:00,4.8,-99.9,30.39,North,-999,0.0,3.6,-999,0.00,,,-99.99,FreeWX 2.04,2013-02-21 02:41:00,
2013-02-20 20:46:00,4.8,-99.9,30.39,North,-999,0.0,3.1,-999,0.00,,,-99.99,FreeWX 2.04,2013-02-21 02:46:00,
2013-02-20 20:51:00,4.6,-99.9,30.39,NNW,339,1.0,3.6,-999,0.00,,,-99.99,FreeWX 2.04,2013-02-21 02:51:00,
2013-02-20 20:56:00,4.5,-99.9,30.39,NNW,339,2.0,4.5,-999,0.00,,,-99.99,FreeWX 2.04,2013-02-21 02:56:00,
2013-02-20 21:01:00,4.1,-99.9,30.39,NNW,339,2.0,5.4,-999,0.00,,,-99.99,FreeWX 2.04,2013-02-21 03:01:00,
2013-02-20 21:06:00,3.9,-99.9,30.39,NNW,339,2.0,5.8,-999,0.00,,,-99.99,FreeWX 2.04,2013-02-21 03:06:00,
2013-02-20 21:11:00,3.7,-99.9,30.39,NNW,339,2.0,5.4,-999,0.00,,,-99.99,FreeWX 2.04,2013-02-21 03:11:00,
2013-02-20 21:16:00,3.6,-99.9,30.39,NNW,339,2.0,6.3,-999,0.00,,,-99.99,FreeWX 2.04,2013-02-21 03:16:00,
2013-02-20 21:21:00,3.4,-99.9,30.39,NNW,339,2.0,3.6,-999,0.00,,,-99.99,FreeWX 2.04,2013-02-21 03:21:00,
2013-02-20 21:26:00,3.2,-99.9,30.39,NNW,339,2.0,5.4,-999,0.00,,,-99.99,FreeWX 2.04,2013-02-21 03:26:00,
2013-02-20 21:31:00,3.2,-99.9,30.39,NNW,339,3.0,4.5,-999,0.00,,,-99.99,FreeWX 2.04,2013-02-21 03:31:00,
2013-02-20 21:36:00,3.0,-99.9,30.39,NNW,339,2.0,4.0,-999,0.00,,,-99.99,FreeWX 2.04,2013-02-21 03:36:00,
2013-02-20 21:41:00,2.8,-99.9,30.39,NNW,339,2.0,4.9,-999,0.00,,,-99.99,FreeWX 2.04,2013-02-21 03:41:00,
2013-02-20 21:46:00,2.8,-99.9,30.39,NNW,339,1.0,4.0,-999,0.00,,,-99.99,FreeWX 2.04,2013-02-21 03:46:00,
2013-02-20 21:51:00,2.8,-99.9,30.39,NNW,339,1.0,4.9,-999,0.00,,,-99.99,FreeWX 2.04,2013-02-21 03:51:00,
2013-02-20 21:56:00,2.8,-99.9,30.39,NNW,339,2.0,4.5,-999,0.00,,,-99.99,FreeWX 2.04,2013-02-21 03:56:00,
2013-02-20 22:01:00,2.8,-99.9,30.39,North,-999,0.0,0.0,-999,0.00,,,-99.99,FreeWX 2.04,2013-02-21 04:01:00,
2013-02-20 22:06:00,3.0,-99.9,30.39,North,-999,0.0,4.0,-999,0.00,,,-99.99,FreeWX 2.04,2013-02-21 04:06:00,
2013-02-20 22:11:00,2.8,-99.9,30.39,North,-999,0.0,0.0,-999,0.00,,,-99.99,FreeWX 2.04,2013-02-21 04:11:00,
2013-02-20 22:16:00,2.8,-99.9,30.39,North,-999,0.0,4.5,-999,0.00,,,-99.99,FreeWX 2.04,2013-02-21 04:16:00,
2013-02-20 22:21:00,2.7,-99.9,30.39,NNW,339,2.0,5.4,-999,0.00,,,-99.99,FreeWX 2.04,2013-02-21 04:21:00,
2013-02-20 22:26:00,2.5,-99.9,30.39,NNW,339,3.0,6.9,-999,0.00,,,-99.99,FreeWX 2.04,2013-02-21 04:26:00,
2013-02-20 22:31:00,2.5,-99.9,30.39,NNW,339,3.0,6.3,-999,0.00,,,-99.99,FreeWX 2.04,2013-02-21 04:31:00,
2013-02-20 22:36:00,2.3,-99.9,30.39,NNW,339,3.0,4.5,-999,0.00,,,-99.99,FreeWX 2.04,2013-02-21 04:36:00,
2013-02-20 22:41:00,1.9,-99.9,30.39,NNW,339,3.0,5.4,-999,0.00,,,-99.99,FreeWX 2.04,2013-02-21 04:41:00,
2013-02-20 22:46:00,1.8,-99.9,30.39,NNW,339,3.0,4.9,-999,0.00,,,-99.99,FreeWX 2.04,2013-02-21 04:46:00,
2013-02-20 22:51:00,1.6,-99.9,30.39,NNW,339,3.0,4.9,-999,0.00,,,-99.99,FreeWX 2.04,2013-02-21 04:51:00,
2013-02-20 22:56:00,1.6,-99.9,30.39,NNW,339,2.0,4.9,-999,0.00,,,-99.99,FreeWX 2.04,2013-02-21 04:56:00,
2013-02-20 23:01:00,1.6,-99.9,30.39,NNW,339,2.0,4.9,-999,0.00,,,-99.99,FreeWX 2.04,2013-02-21 05:01:00,
2013-02-20 23:06:00,1.6,-99.9,30.39,NNW,339,3.0,5.4,-999,0.00,,,-99.99,FreeWX 2.04,2013-02-21 05:06:00,
2013-02-20 23:11:00,1.6,-99.9,30.39,NNW,339,3.0,5.4,-999,0.00,,,-99.99,FreeWX 2.04,2013-02-21 05:11:00,
2013-02-20 23:16:00,1.4,-99.9,30.39,NNW,339,3.0,4.9,-999,0.00,,,-99.99,FreeWX 2.04,2013-02-21 05:16:00,
2013-02-20 23:21:00,1.4,-99.9,30.41,NNW,339,2.0,4.5,-999,0.00,,,-99.99,FreeWX 2.04,2013-02-21 05:21:00,
2013-02-20 23:26:00,1.4,-99.9,30.41,NNW,339,2.0,5.4,-999,0.00,,,-99.99,FreeWX 2.04,2013-02-21 05:26:00,
2013-02-20 23:31:00,1.2,-99.9,30.41,NNW,339,2.0,5.8,-999,0.00,,,-99.99,FreeWX 2.04,2013-02-21 05:31:00,
2013-02-20 23:36:00,1.2,-99.9,30.41,NNW,339,2.0,6.3,-999,0.00,,,-99.99,FreeWX 2.04,2013-02-21 05:36:00,
2013-02-20 23:41:00,1.2,-99.9,30.41,NNW,339,1.0,4.0,-999,0.00,,,-99.99,FreeWX 2.04,2013-02-21 05:41:00,
2013-02-20 23:46:00,1.4,-99.9,30.41,North,-999,0.0,3.1,-999,0.00,,,-99.99,FreeWX 2.04,2013-02-21 05:46:00,
2013-02-20 23:51:00,1.6,-99.9,30.41,North,-999,0.0,4.0,-999,0.00,,,-99.99,FreeWX 2.04,2013-02-21 05:51:00,
2013-02-20 23:56:00,1.6,-99.9,30.41,North,-999,0.0,4.0,-999,0.00,,,-99.99,FreeWX 2.04,2013-02-21 05:56:00,